Great Bend, NY

12:24 PM EDT on July 23, 2016 (GMT -0400)
Wheeler-Sack Army Air Field

Weather History for KGTB - March, 2013

Change the Weather History Date:

Tuesday, March 26, 2013

  Actual Average Record
Temperature  
Mean Temperature 36 °F -  
Max Temperature 42 °F 39 °F 64 °F (2004)
Min Temperature 30 °F 25 °F 6 °F (2001)
Degree Days  
Heating Degree Days 29    
Moisture  
Dew Point 25 °F    
Average Humidity 74    
Maximum Humidity 86    
Minimum Humidity 39    
Precipitation  
Precipitation 0.00 in - - ()
Sea Level Pressure  
Sea Level Pressure 29.80 in    
Wind  
Wind Speed 7 mph (NNE)    
Max Wind Speed 14 mph    
Max Gust Speed 20 mph    
Visibility 10 miles    
Events Snow    
Averages and records for this station are not official NWS values.
T = Trace of Precipitation, MM = Missing Value Source: NWS Daily Summary

Daily Weather History Graph

Daily Weather History Graph

Search for Another Location

Airport or City:

Trip Planner

Search our weather history database for the weather conditions in past years. The results will help you decide how hot, cold, wet, or windy it might be!

Date:

Astronomy

Mar. 26, 2013 Rise Set
Actual Time 6:54 AM EDT 7:22 PM EDT
Civil Twilight 6:25 AM EDT 7:51 PM EDT
Nautical Twilight 5:51 AM EDT 8:26 PM EDT
Astronomical Twilight 5:16 AM EDT 9:01 PM EDT
Moon 6:57 PM EDT (3/26) 6:10 AM EDT (3/26)
Length of Visible Light 13h 26m
Length of Day
12h 28m
Waxing Gibbous, 99% of the Moon is Illuminated
Mar 26
Waxing Gibbous
Mar 27
Full
Apr 3
Last Quarter
Apr 10
New
Apr 18
First Quarter

Hourly Weather History & Observations

Time (EDT) Temp. Windchill Dew Point Humidity Pressure Visibility Wind Dir Wind Speed Gust Speed Precip Events Conditions
12:55 AM 31.1 °F 25.4 °F 26.8 °F 84% 29.70 in 10.0 mi NNE 5.8 mph - N/A   Overcast
1:55 AM 32.0 °F 27.5 °F 26.6 °F 80% 29.71 in 10.0 mi North 4.6 mph - N/A   Overcast
2:55 AM 31.6 °F 26.0 °F 26.8 °F 82% 29.71 in 10.0 mi North 5.8 mph - N/A   Overcast
3:55 AM 31.6 °F 23.7 °F 27.0 °F 83% 29.72 in 10.0 mi NNE 9.2 mph - N/A   Overcast
4:55 AM 31.3 °F 23.9 °F 26.8 °F 83% 29.73 in 10.0 mi NNE 8.1 mph - N/A   Overcast
5:55 AM 30.9 °F 23.5 °F 26.4 °F 83% 29.75 in 10.0 mi NE 8.1 mph - N/A   Overcast
6:14 AM 30.2 °F 22.6 °F 26.6 °F 86% 29.76 in 10.0 mi NE 8.1 mph - N/A   Overcast
6:31 AM 30.2 °F 24.3 °F 26.6 °F 86% 29.76 in 10.0 mi NE 5.8 mph - N/A   Overcast
6:55 AM 30.7 °F 23.3 °F 25.9 °F 82% 29.77 in 10.0 mi NE 8.1 mph - 0.00 in   Overcast
7:13 AM 30.2 °F 22.6 °F 26.6 °F 86% 29.78 in 10.0 mi NE 8.1 mph - N/A   Overcast
7:15 AM 30.2 °F 22.6 °F 26.6 °F 86% 29.78 in 10.0 mi NE 8.1 mph - N/A   Overcast
7:19 AM 30.2 °F 23.4 °F 26.6 °F 86% 29.78 in 10.0 mi NE 6.9 mph - N/A   Overcast
7:21 AM 30.2 °F 23.4 °F 26.6 °F 86% 29.78 in 10.0 mi NE 6.9 mph - N/A   Overcast
7:25 AM 30.2 °F 24.3 °F 26.6 °F 86% 29.78 in 10.0 mi ENE 5.8 mph - N/A   Overcast
7:30 AM 30.2 °F 24.3 °F 26.6 °F 86% 29.78 in 10.0 mi ENE 5.8 mph - N/A   Overcast
7:32 AM 30.2 °F 25.4 °F 26.6 °F 86% 29.78 in 10.0 mi ENE 4.6 mph - N/A Snow Light Snow
7:41 AM 30.2 °F 24.3 °F 26.6 °F 86% 29.79 in 5.0 mi East 5.8 mph - N/A Snow Light Snow
7:42 AM 30.2 °F 25.4 °F 26.6 °F 86% 29.79 in 5.0 mi East 4.6 mph - N/A Snow Light Snow
7:46 AM 30.2 °F 24.3 °F 26.6 °F 86% 29.79 in 8.0 mi ENE 5.8 mph - N/A   Overcast
7:55 AM 30.6 °F 24.7 °F 26.6 °F 85% 29.79 in 10.0 mi ENE 5.8 mph - 0.00 in   Overcast
8:55 AM 31.8 °F 26.2 °F 26.2 °F 80% 29.81 in 10.0 mi ENE 5.8 mph - N/A   Overcast
9:55 AM 34.3 °F 28.4 °F 25.7 °F 71% 29.81 in - NNE 6.9 mph - N/A   Unknown
10:55 AM 36.5 °F 28.7 °F 23.9 °F 60% 29.81 in 10.0 mi NE 11.5 mph - N/A   Clear
11:55 AM 37.9 °F 32.1 °F 23.5 °F 56% 29.83 in 10.0 mi NE 8.1 mph - N/A   Clear
12:55 PM 39.4 °F 31.4 °F 20.7 °F 47% 29.83 in 10.0 mi NE 13.8 mph 19.6 mph N/A   Scattered Clouds
1:55 PM 39.6 °F 32.5 °F 22.1 °F 50% 29.83 in 10.0 mi NNE 11.5 mph - N/A   Overcast
2:55 PM 41.7 °F 36.7 °F 19.9 °F 42% 29.83 in 10.0 mi NNW 8.1 mph - N/A   Mostly Cloudy
3:55 PM 40.3 °F 33.0 °F 20.7 °F 46% 29.83 in 10.0 mi NNE 12.7 mph - N/A   Overcast
4:55 PM 42.4 °F 37.5 °F 18.7 °F 39% 29.83 in 10.0 mi NNW 8.1 mph - N/A   Scattered Clouds
5:55 PM 41.9 °F 38.2 °F 20.3 °F 42% 29.84 in 10.0 mi North 5.8 mph - N/A   Clear
6:55 PM 41.4 °F 37.6 °F 19.4 °F 41% 29.85 in 10.0 mi NW 5.8 mph - N/A   Clear
7:55 PM 36.3 °F 31.6 °F 25.9 °F 66% 29.88 in 10.0 mi West 5.8 mph - N/A   Clear
8:55 PM 33.4 °F 26.6 °F 28.2 °F 81% 29.89 in 10.0 mi WSW 8.1 mph - N/A   Partly Cloudy
9:55 PM 33.8 °F 27.0 °F 28.2 °F 80% 29.89 in 10.0 mi WSW 8.1 mph - N/A   Overcast
10:55 PM 34.5 °F 28.6 °F 28.8 °F 79% 29.88 in 10.0 mi WSW 6.9 mph - N/A   Overcast
11:55 PM 34.7 °F 29.6 °F 29.3 °F 81% 29.88 in 10.0 mi WSW 5.8 mph - N/A   Overcast